Weather in Pokrovsk-Uralskiy

Russia / Sverdlovsk Oblast     60°08′53″N   59°49′34″E
temp.,
°C
wind,
m/s
gust,
m/s
humid.,
%
clouds,
%
prec.,
mm/h
press.,
hPa
HPBL,
m
25 february, thu
thu2523:00−24nw129752 0.0 103120
02:00−25nw119791 0.0 103020
05:00−24wnw119793 0.0 102920
08:00−23wnw129679 0.0 102820
11:00−17wnw118877 0.0 1027176
14:00−14ene018393 0.0 1026587
17:00−15se119196 0.1 102674
20:00−20sw119992 0.0 102620
26 february, fri
fri2623:00−22w119891 0.1 102720
02:00−24w119524 0.0 102620
05:00−24wsw119328 0.0 102720
08:00−25wsw119245 0.0 102620
11:00−18sse118449 0.0 1025186
14:00−14sse238368 0.0 1024472
17:00−15sse249382 0.0 1023429
20:00−20s12100100 0.1 102220
27 february, sat
sat2723:00−22s12100100 0.1 102220
02:00−25s11100100 0.0 102120
05:00−26s1110099 0.1 102119
08:00−28sse11100100 0.0 102019
11:00−23ese1293100 0.0 1019244
14:00−20e238795 0.0 1018504
17:00−20ene239598 0.1 1018481
20:00−23nne22100100 0.2 101837
28 february, sun
sun2823:00−23nne22100100 0.4 101851
02:00−24nne2399100 0.2 1017103
05:00−25n2499100 0.4 1018139
08:00−26n2598100 0.2 1017225
11:00−24nne2595100 0.3 1017306
14:00−20nne2493100 0.1 1016381
17:00−19nne2494100 0.2 1016408
20:00−22n1299100 0.1 101738
1 march, mon
mon123:00−23nnw1298100 0.2 101823
02:00−25wnw119752 0.0 101820
05:00−24w119525 0.0 101820
08:00−23wsw11930 0.0 101820
11:00−14sw12830 0.0 1016194
14:00−8sw13740 0.0 1013549
17:00−8sw12840 0.0 101177
20:00−15wsw229051 0.0 100829